Terminal Aerodrome Forecast
Issued by NWS

Home | Current Version | Previous Version | Text Only | Print | Product List | Glossary On
Versions: 1 2 3 4 5 6 7 8 9 10 11 12 13 14 15 16 17 18 19 20 21 22 23 24 25 26 27 28 29 30 31 32 33 34 35 36 37 38 39 40 41 42 43 44 45 46 47 48 49 50
000
FTUS43 KMKX 261741 AAB
TAFENW
TAF AMD
KENW 261741Z 2618/2718 19006KT P6SM SCT040
     FM262000 19006KT 3SM -SN OVC040
      TEMPO 2620/2622 2SM -SN OVC015
     FM270600 12004KT P6SM OVC020
     FM270900 06005KT P6SM OVC015
     FM271200 05004KT P6SM OVC030
     FM271700 05006KT P6SM SCT050=

USA.gov is the U.S. government's official web portal to all federal, state and local government web resources and services.